FW4835 Weather Reports


Display with metric or nautical units.
time (UTC)temp
F
wind
direction
speed
MPH
gust
MPH
rain 1hr
in
rain 24hr
in
rain mn
in
humidity
%
barometer
mb
20260902143036 60 355 0.0 2.0 0.00 0.00 0.00 80 1003.5
20260902141536 60 37 1.0 2.0 0.00 0.00 0.00 79 1003.7
20260902140029 60 320 0.0 3.0 0.00 0.00 0.00 79 1003.9
20260902134532 60 321 0.0 3.0 0.00 0.00 0.00 81 1004.4
20260902133025 60 105 0.0 3.0 0.00 0.00 0.00 81 1004.6
20260902131522 59 73 0.0 1.0 0.00 0.00 0.00 83 1004.8
20260902130022 59 32 0.0 1.0 0.00 0.00 0.00 83 1004.9
20260902124524 60 30 0.0 2.0 0.00 0.00 0.00 82 1005.1
20260902123018 60 40 0.0 2.0 0.00 0.00 0.00 83 1005.2
20260902121516 60 38 0.0 2.0 0.00 0.00 0.00 82 1005.5
20260902120015 60 38 0.0 3.0 0.00 0.00 0.00 82 1005.5
20260902114515 60 44 0.0 5.0 0.00 0.00 0.00 81 1005.7
20260902113011 60 84 0.0 2.0 0.00 0.00 0.00 81 1005.9
20260902111510 60 211 0.0 2.0 0.00 0.00 0.00 81 1006.1
20260902110010 60 185 0.0 2.0 0.00 0.00 0.00 81 1006.1
20260902104511 60 224 0.0 3.0 0.00 0.00 0.00 82 1006.1
20260902103011 60 16 0.0 2.0 0.00 0.00 0.00 83 1006.2
20260902101517 60 16 0.0 2.0 0.00 0.00 0.00 83 1006.4
20260902100009 60 292 1.0 2.0 0.00 0.00 0.00 84 1006.3
20260902094504 60 149 0.0 2.0 0.00 0.00 0.00 84 1006.3
20260902093002 60 161 0.0 2.0 0.00 0.00 0.00 84 1006.5
20260902091501 60 153 0.0 2.0 0.00 0.00 0.00 85 1006.7
20260902084606 60 148 0.0 2.0 0.00 0.00 0.00 84 1006.9
20260902083100 61 148 0.0 2.0 0.00 0.00 0.00 82 1006.8
20260902081558 61 159 0.0 3.0 0.00 0.00 0.00 83 1006.8
20260902080112 61 159 0.0 3.0 0.00 0.00 0.00 83 1006.9
20260902074555 61 67 0.0 3.0 0.00 0.00 0.00 83 1006.9
20260902073052 60 234 0.0 2.0 0.00 0.00 0.00 85 1007.1
20260902071547 59 312 0.0 1.0 0.00 0.00 0.00 89 1007.3
20260902070043 59 312 0.0 1.0 0.00 0.00 0.00 91 1007.3
20260902064556 59 312 0.0 1.0 0.00 0.00 0.00 91 1007.3
20260902063046 59 312 0.0 2.0 0.00 0.00 0.00 91 1007.3
20260902061552 59 312 0.0 1.0 0.00 0.00 0.00 91 1007.2
20260902060040 59 312 0.0 1.0 0.00 0.00 0.00 91 1007.5
20260902054540 59 312 0.0 0.0 0.00 0.00 0.00 91 1007.7
20260902053038 59 312 0.0 1.0 0.00 0.00 0.00 90 1007.8
20260902051539 60 312 0.0 0.0 0.00 0.00 0.00 90 1007.6
20260902050036 60 312 0.0 1.0 0.00 0.00 0.00 89 1007.6
20260902044536 60 312 0.0 0.0 0.00 0.00 0.00 89 1007.6
20260902043037 61 312 0.0 0.0 0.00 0.00 0.00 89 1007.6
20260902041533 61 312 0.0 1.0 0.00 0.00 0.00 88 1007.6
20260902040032 61 312 0.0 2.0 0.00 0.00 0.00 87 1007.7
20260902034532 61 312 0.0 1.0 0.00 0.00 0.00 87 1007.5
20260902033050 62 312 0.0 2.0 0.00 0.00 0.00 86 1007.3
20260902031530 62 312 0.0 1.0 0.00 0.00 0.00 86 1007.3
20260902030030 63 260 0.0 2.0 0.00 0.00 0.00 84 1007.2
20260902024529 63 243 0.0 2.0 0.00 0.00 0.00 83 1007.2
20260902023029 64 119 0.0 1.0 0.00 0.00 0.00 81 1007.2
20260902021528 65 119 0.0 2.0 0.00 0.00 0.00 79 1007.1
20260902020036 65 93 0.0 1.0 0.00 0.00 0.00 78 1007.0
20260902014532 65 93 0.0 3.0 0.00 0.00 0.00 78 1007.0
20260902013027 65 96 0.0 3.0 0.00 0.00 0.00 77 1007.0
20260902011526 65 99 0.0 2.0 0.00 0.00 0.00 77 1007.1
20260902010026 65 99 0.0 2.0 0.00 0.00 0.00 77 1007.1
20260902004526 66 99 0.0 2.0 0.00 0.00 0.00 77 1006.9
20260902003025 66 101 0.0 4.0 0.00 0.00 0.00 76 1006.8
20260902001524 67 344 1.0 5.0 0.00 0.00 0.00 74 1006.8
20260902000024 67 75 1.0 3.0 0.00 0.00 0.00 71 1006.8
20260901234523 67 96 0.0 2.0 0.00 0.00 0.00 74 1007.1
20260901233029 67 71 0.0 3.0 0.00 0.00 0.00 73 1007.1
20260901231520 66 76 0.0 2.0 0.00 0.00 0.00 74 1007.2
20260901230019 66 82 0.0 3.0 0.00 0.00 0.00 74 1007.3
20260901224532 66 88 0.0 1.0 0.00 0.00 0.00 74 1007.3
20260901223016 66 121 1.0 3.0 0.00 0.00 0.00 75 1007.3
20260901221515 65 130 0.0 2.0 0.00 0.00 0.00 77 1007.4
20260901220015 65 130 0.0 2.0 0.00 0.00 0.00 78 1007.3
20260901214515 65 130 0.0 2.0 0.00 0.00 0.00 77 1007.3
20260901213016 66 144 1.0 3.0 0.00 0.00 0.00 75 1007.3
20260901211521 65 283 0.0 2.0 0.00 0.00 0.00 78 1007.5
20260901210010 64 161 0.0 2.0 0.00 0.00 0.00 79 1007.5
20260901204509 64 91 0.0 2.0 0.00 0.00 0.00 78 1007.5
20260901203009 65 92 0.0 3.0 0.00 0.00 0.00 76 1007.6
20260901201506 65 115 1.0 2.0 0.00 0.00 0.00 78 1007.6
20260901200005 64 195 0.0 2.0 0.00 0.00 0.00 80 1007.7
20260901194508 64 62 1.0 3.0 0.00 0.00 0.00 81 1007.8
20260901193110 63 229 0.0 3.0 0.00 0.00 0.00 83 1007.9
20260901191601 62 75 1.0 3.0 0.00 0.00 0.00 86 1008.0
20260901190112 61 173 0.0 3.0 0.00 0.00 0.00 90 1008.1
20260901184555 60 119 0.0 4.0 0.00 0.00 0.00 90 1008.5
20260901183055 61 109 1.0 3.0 0.00 0.00 0.00 86 1008.2
20260901181559 61 171 0.0 3.0 0.00 0.00 0.00 86 1008.1
20260901180053 61 186 0.0 4.0 0.00 0.00 0.00 87 1008.3
20260901174551 61 100 0.0 2.0 0.00 0.00 0.00 88 1008.3
20260901173059 61 100 0.0 3.0 0.00 0.00 0.00 86 1008.0
20260901171559 61 71 1.0 2.0 0.00 0.00 0.00 87 1008.1
20260901170049 60 115 0.0 2.0 0.00 0.00 0.00 89 1008.0
20260901164552 60 115 0.0 3.0 0.00 0.00 0.00 90 1007.9
20260901163043 60 318 0.0 1.0 0.00 0.00 0.00 90 1007.9
20260901161544 59 318 0.0 1.0 0.00 0.00 0.00 91 1007.9
20260901160039 59 317 0.0 1.0 0.00 0.00 0.00 92 1008.1
20260901154538 58 317 0.0 2.0 0.00 0.00 0.00 92 1008.1
20260901153036 58 331 0.0 1.0 0.00 0.00 0.00 93 1008.1
20260901151541 58 331 0.0 1.0 0.00 0.00 0.00 93 1008.2
20260901150032 58 331 0.0 1.0 0.00 0.00 0.00 94 1008.1
20260901144529 58 331 0.0 1.0 0.00 0.00 0.00 94 1007.9